YAOGAN-30 G

导读 | 豆包AI

YAOGAN-30 G(遥感三十号G卫星)是中国于2017年12月25日发射的遥感卫星,隶属于遥感三十号卫星系列,该卫星采用多星组网模式运行,主要任务是开展电磁环境探测及相关技术试验。作为中国遥感卫星体系的组成部分,它将为空间环境探测、科学试验提供数据支撑,助力相关航天技术验证与应用研究,发射任务的成功进一步完善了我国遥感卫星组网布局。

基本信息
目录编号:
43081
目录名称:
YAOGAN-30 G
国际标识:
2017-085A
轨道中心:
EARTH
卫星名称:
YAOGAN-30 G
卫星全名:
--
卫星状态:
在轨 (已飞行3002 天)
发射日期:
2017-12-25 UTC
国别 :
中国 (CN)
星等 :
--
轨道信息
数据来源 国际轨道数据 AOE轨道数据
星历时间 2026-03-15T06:14:22+0800
11小时前
查看轨道信息
2026-03-15T11:00:00+0800
7小时前
查看轨道信息
半长轴 6938.296km 6938.255km
偏心率 0.000412 0.0003851
轨道倾角 34.997° 34.997°
近地点辐角 36.955° 35.900°
升交点赤经 4.358° 3.149°
平近点角 323.144° 318.659°
近地点 557.3km 557.446km
远地点 563.018km 562.79km
周期 95.860分钟 95.859分钟
每日圈数 15.021855 15.021988
详细信息
使用方式:
暂无
2D轨道图
3D轨道图
轨道高度分析图
轨道倾角分析图
轨道综合分析图
查看轨道综合分析图